Starlink 11449

operational
NORAD ID: 63012 Int'l Des: 2025-032 Owner: SPXS Country: US Constellation: starlink
LEOCIRCULAR

Über Starlink 11449

Beschreibung wird geladen...

Live-Position

3D-Globus wird geladen...

Nächste Überflüge

Höhenverlauf

Altitude vs Time

uPlot chart will show altitude changes over time

Zweizeiliger Elementsatz

1 63012U 25032H 25259.91143060 .00156796 00000-0 12018-2 0 9999
2 63012 42.9997 162.7597 0001680 263.2217 96.8460 15.70853328 34887
Epoch: 16. Sept. 2025 • Age: 17 hours

Aktueller Status

Höhe 355.7 km
Geschwindigkeit 7.70 km/s
Subsatellitenpunkt 19.70°N, 37.59°W
Startdatum 15. Feb. 2025
Alter 0.5 years
Typ internet

Technische Details

Klassifizierung Payload
Masse 960.00 kg
Trockenmasse 910.00 kg
Gesamtmasse 960.00 kg
Länge 0.30 m
Durchmesser 4.10 m
Spannweite 29.00 m
Form Box + pan
Hersteller SPXS
Bus-Typ Starlink V2MD
Phasenstatus In Orbit
Besitzer/Staat SPXS/US

Große Konstellationen

Loading constellations...